TimeCDT,TemperatureF,Dew PointF,Humidity,Sea Level PressureIn,VisibilityMPH,Wind Direction,Wind SpeedMPH,Gust SpeedMPH,PrecipitationIn,Events,Conditions,WindDirDegrees,DateUTC
12:15 AM,66.6,64.4,93,29.92,7.0,SSW,6.9,-,N/A,,Overcast,200,2013-10-16 05:15:00
12:35 AM,66.7,64.6,93,29.92,7.0,SSW,6.9,-,N/A,,Overcast,210,2013-10-16 05:35:00
12:55 AM,66.7,64.6,93,29.92,5.0,SSW,6.9,-,N/A,,Overcast,210,2013-10-16 05:55:00
1:15 AM,66.7,64.8,93,29.92,5.0,SW,9.2,-,N/A,,Overcast,230,2013-10-16 06:15:00
1:35 AM,63.5,61.5,93,29.94,3.0,NW,15.0,19.6,0.01,,Drizzle,310,2013-10-16 06:35:00
1:55 AM,61.7,58.1,88,29.94,7.0,WNW,10.4,-,0.01,,Light Drizzle,300,2013-10-16 06:55:00
2:15 AM,61.2,57.4,87,29.95,10.0,WNW,10.4,-,N/A,,Overcast,300,2013-10-16 07:15:00
2:35 AM,60.3,55.6,85,29.95,10.0,WNW,8.1,-,N/A,,Overcast,290,2013-10-16 07:35:00
2:55 AM,60.1,56.8,89,29.96,10.0,West,5.8,-,N/A,,Overcast,280,2013-10-16 07:55:00
3:15 AM,59.9,55.9,87,29.95,10.0,WNW,6.9,-,N/A,Rain,Light Rain,300,2013-10-16 08:15:00
3:35 AM,59.5,55.2,86,29.96,10.0,WNW,5.8,-,N/A,,Overcast,290,2013-10-16 08:35:00
3:55 AM,59.5,54.0,82,29.96,10.0,West,6.9,-,N/A,,Overcast,280,2013-10-16 08:55:00
4:15 AM,59.0,54.0,83,29.97,10.0,WNW,4.6,-,0.01,Rain,Light Rain,290,2013-10-16 09:15:00
4:35 AM,59.0,53.1,81,29.97,10.0,NW,8.1,-,0.01,,Overcast,310,2013-10-16 09:35:00
4:55 AM,58.6,52.7,81,29.97,10.0,WNW,5.8,-,0.01,,Overcast,300,2013-10-16 09:55:00
5:15 AM,58.5,52.2,80,29.97,10.0,NW,9.2,-,N/A,,Overcast,320,2013-10-16 10:15:00
5:35 AM,58.1,51.3,78,29.97,10.0,NW,9.2,-,N/A,,Overcast,310,2013-10-16 10:35:00
5:55 AM,57.7,51.8,81,29.98,10.0,WNW,8.1,-,N/A,,Overcast,300,2013-10-16 10:55:00
6:15 AM,57.2,50.5,78,29.99,10.0,WNW,10.4,-,N/A,,Overcast,300,2013-10-16 11:15:00
6:35 AM,56.7,50.2,79,29.99,10.0,WNW,5.8,-,N/A,,Overcast,290,2013-10-16 11:35:00
6:55 AM,56.3,49.1,77,30.00,10.0,WNW,8.1,-,N/A,,Overcast,300,2013-10-16 11:55:00
7:15 AM,55.6,48.2,76,30.00,10.0,WNW,5.8,-,N/A,,Mostly Cloudy,300,2013-10-16 12:15:00
7:35 AM,55.4,48.0,76,30.01,10.0,WNW,5.8,-,N/A,,Mostly Cloudy,300,2013-10-16 12:35:00
7:55 AM,55.4,47.5,75,30.02,10.0,WNW,6.9,-,N/A,,Overcast,290,2013-10-16 12:55:00
8:15 AM,55.4,46.8,73,30.01,10.0,NW,5.8,-,N/A,,Overcast,310,2013-10-16 13:15:00
8:35 AM,55.6,46.8,72,30.02,10.0,WNW,4.6,-,N/A,,Overcast,300,2013-10-16 13:35:00
8:55 AM,55.8,46.4,71,30.02,10.0,WNW,5.8,-,N/A,,Mostly Cloudy,300,2013-10-16 13:55:00
9:15 AM,56.3,46.9,71,30.02,10.0,NW,5.8,-,N/A,,Mostly Cloudy,320,2013-10-16 14:15:00
9:35 AM,56.5,46.4,69,30.02,10.0,West,6.9,-,N/A,,Mostly Cloudy,280,2013-10-16 14:35:00
9:55 AM,56.5,45.3,66,30.02,10.0,NW,6.9,-,N/A,,Overcast,310,2013-10-16 14:55:00
10:15 AM,56.8,45.5,66,30.02,10.0,NW,5.8,-,N/A,,Overcast,310,2013-10-16 15:15:00
10:35 AM,56.8,45.5,66,30.02,10.0,NW,8.1,-,N/A,,Overcast,320,2013-10-16 15:35:00
10:55 AM,56.8,45.9,67,30.03,10.0,West,5.8,-,N/A,,Overcast,280,2013-10-16 15:55:00
11:15 AM,56.3,46.2,69,30.03,10.0,WNW,6.9,-,N/A,,Overcast,290,2013-10-16 16:15:00
11:35 AM,56.5,45.3,66,30.03,10.0,WNW,9.2,-,N/A,,Overcast,300,2013-10-16 16:35:00
11:55 AM,57.0,45.0,64,30.03,10.0,WNW,6.9,-,N/A,,Overcast,300,2013-10-16 16:55:00
12:15 PM,58.1,45.1,62,30.02,10.0,WNW,6.9,-,N/A,,Overcast,300,2013-10-16 17:15:00
12:35 PM,57.9,45.1,62,30.02,10.0,West,4.6,-,N/A,,Mostly Cloudy,280,2013-10-16 17:35:00
12:55 PM,59.9,46.8,62,30.01,10.0,WSW,4.6,-,N/A,,Scattered Clouds,240,2013-10-16 17:55:00
1:15 PM,60.8,45.9,58,30.00,10.0,West,6.9,-,N/A,,Clear,280,2013-10-16 18:15:00
1:35 PM,62.6,47.1,57,29.99,10.0,West,9.2,-,N/A,,Clear,260,2013-10-16 18:35:00
1:55 PM,62.4,46.4,56,29.98,10.0,NW,10.4,-,N/A,,Scattered Clouds,320,2013-10-16 18:55:00
2:15 PM,63.9,46.6,53,29.98,10.0,NNW,8.1,-,N/A,,Scattered Clouds,340,2013-10-16 19:15:00
2:35 PM,64.6,45.5,50,29.97,10.0,WNW,9.2,-,N/A,,Clear,290,2013-10-16 19:35:00
2:55 PM,64.9,45.5,49,29.97,10.0,NNW,6.9,-,N/A,,Clear,330,2013-10-16 19:55:00
3:15 PM,65.1,46.2,50,29.97,10.0,NW,5.8,-,N/A,,Clear,310,2013-10-16 20:15:00
3:35 PM,66.0,46.0,48,29.97,10.0,NNW,3.5,-,N/A,,Clear,330,2013-10-16 20:35:00
3:55 PM,65.5,46.0,49,29.97,10.0,WNW,5.8,-,N/A,,Clear,300,2013-10-16 20:55:00
4:15 PM,64.6,44.6,48,29.96,10.0,NNW,3.5,-,N/A,,Clear,340,2013-10-16 21:15:00
4:35 PM,64.6,45.3,50,29.96,10.0,WNW,5.8,-,N/A,,Clear,290,2013-10-16 21:35:00
4:55 PM,64.6,44.8,49,29.96,10.0,West,5.8,-,N/A,,Clear,280,2013-10-16 21:55:00
5:15 PM,63.9,44.8,50,29.96,10.0,NW,4.6,-,N/A,,Clear,320,2013-10-16 22:15:00
5:35 PM,63.0,45.1,52,29.95,10.0,WNW,3.5,-,N/A,,Clear,300,2013-10-16 22:35:00
5:55 PM,62.1,45.5,55,29.96,10.0,Calm,Calm,-,N/A,,Clear,0,2013-10-16 22:55:00
6:15 PM,61.0,45.9,58,29.96,10.0,Calm,Calm,-,N/A,,Clear,0,2013-10-16 23:15:00
6:35 PM,57.2,46.6,68,29.97,10.0,WNW,4.6,-,N/A,,Clear,290,2013-10-16 23:35:00
6:55 PM,54.7,47.1,76,29.97,10.0,WNW,4.6,-,N/A,,Clear,290,2013-10-16 23:55:00
7:15 PM,53.8,47.5,79,29.97,10.0,WNW,3.5,-,N/A,,Clear,300,2013-10-17 00:15:00
7:35 PM,52.9,47.5,82,29.98,10.0,WNW,4.6,-,N/A,,Clear,300,2013-10-17 00:35:00
7:55 PM,52.5,47.3,82,29.98,10.0,NW,3.5,-,N/A,,Clear,310,2013-10-17 00:55:00
8:15 PM,52.2,46.4,81,29.98,10.0,Calm,Calm,-,N/A,,Clear,0,2013-10-17 01:15:00
8:35 PM,52.0,46.0,80,29.99,10.0,Calm,Calm,-,N/A,,Clear,0,2013-10-17 01:35:00
8:55 PM,50.5,45.3,82,29.99,10.0,Calm,Calm,-,N/A,,Clear,0,2013-10-17 01:55:00
9:15 PM,51.1,45.9,82,29.99,10.0,NW,4.6,-,N/A,,Clear,320,2013-10-17 02:15:00
9:35 PM,50.2,45.0,82,30.00,10.0,NW,6.9,-,N/A,,Clear,310,2013-10-17 02:35:00
9:55 PM,50.4,45.5,83,30.00,10.0,NW,5.8,-,N/A,,Clear,320,2013-10-17 02:55:00
10:15 PM,50.0,45.1,83,30.00,10.0,NNW,5.8,-,N/A,,Clear,330,2013-10-17 03:15:00
10:35 PM,50.7,45.0,81,30.00,10.0,NNW,6.9,-,N/A,,Clear,330,2013-10-17 03:35:00
10:55 PM,50.0,44.8,82,30.01,10.0,NNW,5.8,-,N/A,,Clear,330,2013-10-17 03:55:00
11:15 PM,48.6,44.2,85,30.00,10.0,North,4.6,-,N/A,,Clear,350,2013-10-17 04:15:00
11:35 PM,47.5,44.4,89,30.00,10.0,North,4.6,-,N/A,,Clear,10,2013-10-17 04:35:00
11:55 PM,46.9,44.2,90,29.99,10.0,North,4.6,-,N/A,,Clear,360,2013-10-17 04:55:00